| time (UTC) | temp C | wind direction | speed KPH | gust KPH | rain 1hr cm | rain 24hr cm | rain mn cm | humidity % | barometer mb |
| 20260507010323 | 15 | 222 | 0.0 | 0.0 | 0.00 | 0.00 | 0.00 | 96 | 1007.9 |
| 20260507005828 | 15 | 222 | 0.0 | 0.0 | 0.00 | 0.00 | 0.00 | 96 | 1008.0 |
| 20260507005355 | 15 | 222 | 0.0 | 4.8 | 0.00 | 0.00 | 0.00 | 96 | 1007.9 |
| 20260507004818 | 15 | 222 | 0.0 | 4.8 | 0.00 | 0.00 | 0.00 | 96 | 1007.8 |
| 20260507004320 | 15 | 216 | 0.0 | 0.0 | 0.00 | 0.00 | 0.00 | 96 | 1007.6 |
| 20260507003824 | 15 | 216 | 0.0 | 0.0 | 0.00 | 0.00 | 0.00 | 96 | 1007.5 |
| 20260507003351 | 15 | 216 | 0.0 | 0.0 | 0.00 | 0.00 | 0.00 | 96 | 1007.6 |
| 20260507002818 | 15 | 215 | 0.0 | 3.2 | 0.00 | 0.00 | 0.00 | 96 | 1007.8 |
| 20260507002324 | 15 | 215 | 0.0 | 4.8 | 0.00 | 0.00 | 0.00 | 96 | 1008.0 |
| 20260507001830 | 15 | 254 | 0.0 | 4.8 | 0.00 | 0.00 | 0.00 | 96 | 1007.9 |
| 20260507001332 | 15 | 261 | 0.0 | 6.4 | 0.00 | 0.00 | 0.00 | 95 | 1007.9 |
| 20260507000837 | 15 | 238 | 1.6 | 6.4 | 0.00 | 0.00 | 0.00 | 95 | 1008.0 |
| 20260507000321 | 15 | 185 | 0.0 | 4.8 | 0.00 | 0.00 | 0.00 | 95 | 1007.9 |
| 20260506235851 | 15 | 213 | 1.6 | 4.8 | 0.00 | 0.00 | 0.00 | 96 | 1007.9 |
| 20260506235333 | 15 | 205 | 0.0 | 4.8 | 0.00 | 0.00 | 0.00 | 96 | 1007.9 |
| 20260506234855 | 15 | 209 | 1.6 | 6.4 | 0.00 | 0.00 | 0.00 | 96 | 1007.7 |
| 20260506234337 | 15 | 222 | 0.0 | 6.4 | 0.00 | 0.00 | 0.00 | 96 | 1007.7 |
| 20260506233818 | 15 | 216 | 1.6 | 6.4 | 0.00 | 0.00 | 0.00 | 96 | 1007.6 |
| 20260506233320 | 15 | 213 | 0.0 | 4.8 | 0.00 | 0.00 | 0.00 | 95 | 1007.7 |
| 20260506232847 | 15 | 213 | 1.6 | 4.8 | 0.00 | 0.00 | 0.00 | 95 | 1007.6 |
| 20260506232328 | 15 | 225 | 0.0 | 4.8 | 0.00 | 0.00 | 0.00 | 95 | 1007.5 |
| 20260506231853 | 15 | 225 | 0.0 | 4.8 | 0.00 | 0.00 | 0.00 | 95 | 1007.5 |
| 20260506231321 | 15 | 217 | 0.0 | 3.2 | 0.00 | 0.00 | 0.00 | 95 | 1007.4 |
| 20260506230843 | 15 | 217 | 0.0 | 3.2 | 0.00 | 0.00 | 0.00 | 95 | 1007.4 |
| 20260506230327 | 15 | 243 | 0.0 | 6.4 | 0.00 | 0.00 | 0.00 | 95 | 1007.4 |
| 20260506225831 | 15 | 244 | 1.6 | 6.4 | 0.00 | 0.00 | 0.00 | 95 | 1007.3 |
| 20260506225333 | 15 | 205 | 0.0 | 3.2 | 0.00 | 0.00 | 0.00 | 95 | 1007.2 |
| 20260506224855 | 15 | 205 | 0.0 | 1.6 | 0.00 | 0.00 | 0.00 | 95 | 1007.3 |
| 20260506224318 | 15 | 205 | 0.0 | 4.8 | 0.00 | 0.00 | 0.00 | 95 | 1007.4 |
| 20260506223823 | 15 | 205 | 0.0 | 4.8 | 0.00 | 0.00 | 0.00 | 95 | 1007.3 |
| 20260506223327 | 15 | 210 | 0.0 | 1.6 | 0.00 | 0.00 | 0.00 | 95 | 1007.3 |
| 20260506222831 | 15 | 209 | 0.0 | 4.8 | 0.00 | 0.00 | 0.00 | 95 | 1007.2 |
| 20260506222334 | 15 | 211 | 0.0 | 4.8 | 0.00 | 0.00 | 0.00 | 95 | 1007.1 |
| 20260506221820 | 15 | 230 | 0.0 | 1.6 | 0.00 | 0.00 | 0.00 | 95 | 1007.3 |
| 20260506221323 | 15 | 244 | 0.0 | 3.2 | 0.00 | 0.00 | 0.00 | 95 | 1007.4 |
| 20260506220831 | 15 | 306 | 0.0 | 1.6 | 0.00 | 0.00 | 0.00 | 95 | 1007.3 |
| 20260506220317 | 15 | 306 | 0.0 | 4.8 | 0.00 | 0.00 | 0.00 | 95 | 1007.3 |
| 20260506215822 | 15 | 306 | 0.0 | 4.8 | 0.00 | 0.00 | 0.00 | 95 | 1007.2 |
| 20260506215324 | 15 | 223 | 0.0 | 1.6 | 0.00 | 0.00 | 0.00 | 95 | 1007.0 |
| 20260506214828 | 15 | 223 | 0.0 | 3.2 | 0.00 | 0.00 | 0.00 | 95 | 1007.2 |
| 20260506214333 | 15 | 223 | 0.0 | 3.2 | 0.00 | 0.00 | 0.00 | 95 | 1007.2 |
| 20260506213836 | 15 | 231 | 0.0 | 1.6 | 0.00 | 0.00 | 0.00 | 95 | 1007.1 |
| 20260506213318 | 15 | 231 | 0.0 | 1.6 | 0.00 | 0.00 | 0.00 | 95 | 1007.1 |
| 20260506212820 | 15 | 186 | 0.0 | 0.0 | 0.00 | 0.00 | 0.00 | 95 | 1007.2 |
| 20260506212325 | 15 | 186 | 0.0 | 1.6 | 0.00 | 0.00 | 0.00 | 95 | 1007.3 |
| 20260506211829 | 15 | 186 | 0.0 | 4.8 | 0.00 | 0.00 | 0.00 | 94 | 1007.4 |
| 20260506211320 | 15 | 137 | 0.0 | 4.8 | 0.00 | 0.00 | 0.00 | 94 | 1007.4 |
| 20260506210822 | 15 | 221 | 0.0 | 0.0 | 0.00 | 0.00 | 0.00 | 94 | 1007.4 |
| 20260506210326 | 15 | 221 | 0.0 | 1.6 | 0.00 | 0.00 | 0.00 | 94 | 1007.5 |
| 20260506205832 | 15 | 221 | 0.0 | 1.6 | 0.00 | 0.00 | 0.00 | 94 | 1007.6 |
| 20260506205335 | 15 | 221 | 0.0 | 4.8 | 0.00 | 0.00 | 0.00 | 94 | 1007.7 |
| 20260506204819 | 15 | 180 | 0.0 | 0.0 | 0.00 | 0.00 | 0.00 | 94 | 1007.8 |
| 20260506204341 | 15 | 180 | 0.0 | 0.0 | 0.00 | 0.00 | 0.00 | 94 | 1007.8 |
| 20260506203822 | 15 | 265 | 0.0 | 0.0 | 0.00 | 0.00 | 0.00 | 94 | 1007.8 |
| 20260506203343 | 15 | 265 | 0.0 | 0.0 | 0.00 | 0.00 | 0.00 | 94 | 1007.8 |
| 20260506202828 | 15 | 265 | 0.0 | 0.0 | 0.00 | 0.00 | 0.00 | 94 | 1007.9 |
| 20260506202330 | 15 | 265 | 0.0 | 0.0 | 0.00 | 0.00 | 0.00 | 94 | 1008.0 |
| 20260506201815 | 15 | 279 | 0.0 | 0.0 | 0.00 | 0.00 | 0.00 | 94 | 1007.9 |
| 20260506201324 | 15 | 279 | 0.0 | 6.4 | 0.00 | 0.00 | 0.00 | 94 | 1007.8 |
| 20260506200827 | 15 | 279 | 0.0 | 6.4 | 0.00 | 0.00 | 0.00 | 94 | 1007.8 |
| 20260506200331 | 15 | 205 | 0.0 | 0.0 | 0.00 | 0.00 | 0.00 | 94 | 1007.9 |
| 20260506195838 | 15 | 205 | 0.0 | 0.0 | 0.00 | 0.00 | 0.00 | 93 | 1007.9 |
| 20260506195322 | 15 | 194 | 0.0 | 3.2 | 0.00 | 0.00 | 0.00 | 93 | 1008.1 |
| 20260506194824 | 15 | 194 | 0.0 | 3.2 | 0.00 | 0.00 | 0.00 | 93 | 1008.0 |
| 20260506194330 | 15 | 228 | 0.0 | 3.2 | 0.00 | 0.00 | 0.00 | 93 | 1008.1 |
| 20260506193854 | 15 | 229 | 0.0 | 4.8 | 0.00 | 0.00 | 0.00 | 93 | 1008.1 |
| 20260506193320 | 15 | 229 | 0.0 | 4.8 | 0.00 | 0.00 | 0.00 | 93 | 1008.2 |
| 20260506192822 | 15 | 150 | 0.0 | 3.2 | 0.00 | 0.00 | 0.00 | 93 | 1008.2 |
| 20260506192327 | 15 | 214 | 0.0 | 1.6 | 0.00 | 0.00 | 0.00 | 93 | 1008.2 |
| 20260506191832 | 15 | 214 | 0.0 | 0.0 | 0.00 | 0.00 | 0.00 | 93 | 1008.2 |
| 20260506191356 | 15 | 214 | 0.0 | 4.8 | 0.00 | 0.00 | 0.00 | 93 | 1008.5 |
| 20260506190822 | 15 | 211 | 0.0 | 4.8 | 0.00 | 0.00 | 0.00 | 92 | 1008.5 |
| 20260506190347 | 15 | 163 | 0.0 | 3.2 | 0.00 | 0.00 | 0.00 | 92 | 1008.5 |
| 20260506185830 | 15 | 264 | 0.0 | 3.2 | 0.00 | 0.00 | 0.00 | 92 | 1008.5 |
| 20260506185317 | 15 | 265 | 0.0 | 4.8 | 0.00 | 0.00 | 0.00 | 92 | 1008.6 |
| 20260506184820 | 15 | 265 | 1.6 | 4.8 | 0.00 | 0.00 | 0.00 | 92 | 1008.9 |
| 20260506184326 | 15 | 274 | 0.0 | 1.6 | 0.00 | 0.00 | 0.00 | 91 | 1008.9 |
| 20260506183827 | 15 | 274 | 0.0 | 8.0 | 0.00 | 0.00 | 0.00 | 91 | 1008.9 |
| 20260506183332 | 15 | 303 | 1.6 | 8.0 | 0.00 | 0.00 | 0.00 | 91 | 1008.8 |
| 20260506182834 | 15 | 156 | 0.0 | 3.2 | 0.00 | 0.00 | 0.00 | 90 | 1008.7 |
| 20260506182323 | 16 | 122 | 0.0 | 4.8 | 0.00 | 0.00 | 0.00 | 90 | 1008.6 |
| 20260506181825 | 16 | 120 | 0.0 | 3.2 | 0.00 | 0.00 | 0.00 | 90 | 1008.5 |
| 20260506181352 | 16 | 116 | 0.0 | 3.2 | 0.00 | 0.00 | 0.00 | 89 | 1008.5 |
| 20260506180819 | 16 | 116 | 0.0 | 6.4 | 0.00 | 0.00 | 0.00 | 89 | 1008.6 |
| 20260506180321 | 16 | 118 | 1.6 | 6.4 | 0.00 | 0.00 | 0.00 | 88 | 1008.6 |
| 20260506175826 | 16 | 119 | 0.0 | 3.2 | 0.00 | 0.00 | 0.00 | 87 | 1008.9 |
| 20260506175349 | 16 | 118 | 0.0 | 3.2 | 0.00 | 0.00 | 0.00 | 86 | 1008.9 |
| 20260506174815 | 17 | 71 | 0.0 | 0.0 | 0.00 | 0.00 | 0.00 | 85 | 1009.1 |
| 20260506174324 | 17 | 71 | 0.0 | 0.0 | 0.00 | 0.00 | 0.00 | 84 | 1009.2 |
| 20260506173826 | 17 | 69 | 0.0 | 1.6 | 0.00 | 0.00 | 0.00 | 84 | 1009.3 |
| 20260506173331 | 17 | 67 | 0.0 | 1.6 | 0.00 | 0.00 | 0.00 | 83 | 1009.5 |
| 20260506172818 | 17 | 226 | 0.0 | 0.0 | 0.00 | 0.00 | 0.00 | 82 | 1009.7 |
| 20260506172320 | 18 | 226 | 0.0 | 0.0 | 0.00 | 0.00 | 0.00 | 81 | 1009.8 |
| 20260506171824 | 18 | 226 | 0.0 | 0.0 | 0.00 | 0.00 | 0.00 | 80 | 1009.7 |
| 20260506171328 | 18 | 227 | 0.0 | 4.8 | 0.00 | 0.00 | 0.00 | 79 | 1009.9 |
| 20260506170819 | 18 | 225 | 0.0 | 6.4 | 0.00 | 0.00 | 0.00 | 77 | 1010.0 |
| 20260506170321 | 18 | 207 | 1.6 | 4.8 | 0.00 | 0.00 | 0.00 | 77 | 1010.0 |
| 20260506165826 | 18 | 184 | 0.0 | 6.4 | 0.00 | 0.00 | 0.00 | 76 | 1010.1 |
| 20260506165330 | 19 | 212 | 1.6 | 6.4 | 0.00 | 0.00 | 0.00 | 74 | 1010.0 |
| 20260506164819 | 19 | 219 | 0.0 | 6.4 | 0.00 | 0.00 | 0.00 | 74 | 1009.9 |
| 20260506164323 | 19 | 198 | 1.6 | 8.0 | 0.00 | 0.00 | 0.00 | 73 | 1009.8 |
| 20260506163829 | 20 | 233 | 1.6 | 8.0 | 0.00 | 0.00 | 0.00 | 73 | 1009.8 |
| 20260506163331 | 20 | 234 | 1.6 | 4.8 | 0.00 | 0.00 | 0.00 | 74 | 1009.8 |
| 20260506162837 | 20 | 255 | 0.0 | 6.4 | 0.00 | 0.00 | 0.00 | 73 | 1009.7 |
| 20260506162319 | 20 | 232 | 1.6 | 6.4 | 0.00 | 0.00 | 0.00 | 74 | 1009.7 |
| 20260506161824 | 20 | 207 | 1.6 | 8.0 | 0.00 | 0.00 | 0.00 | 73 | 1009.7 |
| 20260506161328 | 20 | 178 | 3.2 | 11.3 | 0.00 | 0.00 | 0.00 | 73 | 1009.9 |
| 20260506160832 | 20 | 200 | 3.2 | 11.3 | 0.00 | 0.00 | 0.00 | 73 | 1009.9 |
| 20260506160337 | 20 | 217 | 0.0 | 8.0 | 0.00 | 0.00 | 0.00 | 73 | 1010.1 |
| 20260506155818 | 20 | 227 | 4.8 | 11.3 | 0.00 | 0.00 | 0.00 | 72 | 1010.1 |
| 20260506155323 | 20 | 196 | 0.0 | 12.9 | 0.00 | 0.00 | 0.00 | 72 | 1010.3 |
| 20260506154826 | 20 | 253 | 4.8 | 11.3 | 0.00 | 0.00 | 0.00 | 71 | 1010.2 |
| 20260506154328 | 20 | 259 | 1.6 | 11.3 | 0.00 | 0.00 | 0.00 | 71 | 1010.1 |
| 20260506153834 | 20 | 201 | 3.2 | 8.0 | 0.00 | 0.00 | 0.00 | 71 | 1010.1 |
| 20260506153336 | 20 | 239 | 3.2 | 8.0 | 0.00 | 0.00 | 0.00 | 70 | 1010.1 |
| 20260506152838 | 20 | 263 | 1.6 | 6.4 | 0.00 | 0.00 | 0.00 | 71 | 1010.0 |
| 20260506152323 | 20 | 262 | 0.0 | 6.4 | 0.00 | 0.00 | 0.00 | 71 | 1009.9 |
| 20260506151825 | 20 | 236 | 3.2 | 11.3 | 0.00 | 0.00 | 0.00 | 70 | 1010.0 |
| 20260506151347 | 20 | 205 | 3.2 | 11.3 | 0.00 | 0.00 | 0.00 | 70 | 1010.0 |
| 20260506150847 | 20 | 252 | 3.2 | 9.7 | 0.00 | 0.00 | 0.00 | 71 | 1010.1 |
| 20260506150331 | 20 | 220 | 1.6 | 9.7 | 0.00 | 0.00 | 0.00 | 71 | 1010.3 |
| 20260506145833 | 20 | 194 | 1.6 | 8.0 | 0.00 | 0.00 | 0.00 | 72 | 1010.1 |
| 20260506145319 | 20 | 179 | 1.6 | 8.0 | 0.00 | 0.00 | 0.00 | 72 | 1010.2 |
| 20260506144821 | 20 | 218 | 3.2 | 8.0 | 0.00 | 0.00 | 0.00 | 72 | 1010.3 |
| 20260506144343 | 20 | 206 | 1.6 | 8.0 | 0.00 | 0.00 | 0.00 | 72 | 1010.4 |
| 20260506143847 | 20 | 157 | 3.2 | 12.9 | 0.00 | 0.00 | 0.00 | 72 | 1010.4 |
| 20260506143330 | 20 | 216 | 4.8 | 12.9 | 0.00 | 0.00 | 0.00 | 74 | 1010.2 |
| 20260506142830 | 20 | 227 | 1.6 | 12.9 | 0.00 | 0.00 | 0.00 | 75 | 1010.4 |
| 20260506142337 | 20 | 220 | 3.2 | 12.9 | 0.00 | 0.00 | 0.00 | 74 | 1010.3 |
| 20260506141841 | 19 | 205 | 1.6 | 12.9 | 0.00 | 0.00 | 0.00 | 75 | 1010.5 |
| 20260506141327 | 19 | 192 | 4.8 | 9.7 | 0.00 | 0.00 | 0.00 | 75 | 1010.5 |
| 20260506140828 | 19 | 247 | 3.2 | 12.9 | 0.00 | 0.00 | 0.00 | 75 | 1010.6 |
| 20260506140318 | 19 | 238 | 0.0 | 9.7 | 0.00 | 0.00 | 0.00 | 76 | 1010.7 |
| 20260506135820 | 19 | 224 | 1.6 | 6.4 | 0.00 | 0.00 | 0.00 | 76 | 1010.5 |
| 20260506135344 | 19 | 205 | 1.6 | 6.4 | 0.00 | 0.00 | 0.00 | 76 | 1010.3 |
| 20260506134824 | 19 | 218 | 1.6 | 6.4 | 0.00 | 0.00 | 0.00 | 76 | 1010.4 |
| 20260506134352 | 18 | 211 | 0.0 | 16.1 | 0.00 | 0.00 | 0.00 | 77 | 1010.3 |
| 20260506133814 | 18 | 236 | 3.2 | 16.1 | 0.00 | 0.00 | 0.00 | 78 | 1010.2 |
| 20260506133324 | 18 | 174 | 0.0 | 8.0 | 0.00 | 0.00 | 0.00 | 78 | 1010.3 |
| 20260506132829 | 18 | 232 | 3.2 | 8.0 | 0.00 | 0.00 | 0.00 | 78 | 1010.4 |
| 20260506132331 | 18 | 223 | 0.0 | 3.2 | 0.00 | 0.00 | 0.00 | 79 | 1010.4 |
| 20260506131836 | 18 | 194 | 0.0 | 4.8 | 0.00 | 0.00 | 0.00 | 80 | 1010.4 |
| 20260506131320 | 18 | 229 | 1.6 | 4.8 | 0.00 | 0.00 | 0.00 | 80 | 1010.4 |
| 20260506130824 | 18 | 210 | 1.6 | 4.8 | 0.00 | 0.00 | 0.00 | 80 | 1010.4 |
| 20260506130332 | 18 | 103 | 1.6 | 6.4 | 0.00 | 0.00 | 0.00 | 80 | 1010.7 |
| 20260506125819 | 18 | 186 | 1.6 | 8.0 | 0.00 | 0.00 | 0.00 | 81 | 1010.7 |
| 20260506125325 | 18 | 224 | 3.2 | 8.0 | 0.00 | 0.00 | 0.00 | 81 | 1010.9 |
| 20260506124829 | 18 | 217 | 1.6 | 6.4 | 0.00 | 0.00 | 0.00 | 82 | 1010.9 |
| 20260506124316 | 17 | 207 | 1.6 | 6.4 | 0.00 | 0.00 | 0.00 | 83 | 1011.0 |
| 20260506123825 | 17 | 113 | 0.0 | 6.4 | 0.00 | 0.00 | 0.00 | 84 | 1011.0 |
| 20260506123327 | 17 | 203 | 1.6 | 6.4 | 0.00 | 0.00 | 0.00 | 84 | 1011.0 |
| 20260506122835 | 17 | 248 | 0.0 | 4.8 | 0.00 | 0.00 | 0.00 | 84 | 1011.1 |
| 20260506122357 | 17 | 175 | 0.0 | 3.2 | 0.00 | 0.00 | 0.00 | 86 | 1010.9 |
| 20260506121821 | 16 | 189 | 0.0 | 6.4 | 0.00 | 0.00 | 0.00 | 85 | 1011.0 |
| 20260506121325 | 16 | 189 | 0.0 | 6.4 | 0.00 | 0.00 | 0.00 | 86 | 1010.9 |
| 20260506120849 | 16 | 220 | 0.0 | 4.8 | 0.00 | 0.00 | 0.00 | 86 | 1011.0 |
| 20260506120334 | 16 | 235 | 0.0 | 4.8 | 0.00 | 0.00 | 0.00 | 86 | 1011.0 |
| 20260506115818 | 16 | 151 | 0.0 | 1.6 | 0.00 | 0.00 | 0.00 | 87 | 1010.9 |
| 20260506115326 | 16 | 151 | 0.0 | 1.6 | 0.00 | 0.00 | 0.00 | 87 | 1011.0 |
| 20260506114830 | 16 | 184 | 0.0 | 1.6 | 0.00 | 0.00 | 0.00 | 87 | 1010.9 |
| 20260506114353 | 16 | 194 | 0.0 | 11.3 | 0.00 | 0.00 | 0.00 | 87 | 1011.0 |
| 20260506113835 | 16 | 186 | 1.6 | 11.3 | 0.00 | 0.00 | 0.00 | 88 | 1010.8 |
| 20260506113315 | 16 | 112 | 0.0 | 1.6 | 0.00 | 0.00 | 0.00 | 88 | 1010.7 |
| 20260506112820 | 15 | 198 | 0.0 | 0.0 | 0.00 | 0.00 | 0.00 | 88 | 1010.7 |
| 20260506112322 | 15 | 198 | 0.0 | 4.8 | 0.00 | 0.00 | 0.00 | 88 | 1010.9 |
| 20260506111826 | 15 | 217 | 0.0 | 4.8 | 0.00 | 0.00 | 0.00 | 88 | 1011.1 |
| 20260506111330 | 15 | 204 | 0.0 | 1.6 | 0.00 | 0.00 | 0.00 | 88 | 1011.2 |
| 20260506110834 | 15 | 233 | 0.0 | 4.8 | 0.00 | 0.00 | 0.00 | 88 | 1011.1 |
| 20260506110320 | 15 | 238 | 0.0 | 4.8 | 0.00 | 0.00 | 0.00 | 88 | 1011.1 |
| 20260506105840 | 15 | 157 | 0.0 | 0.0 | 0.00 | 0.00 | 0.00 | 88 | 1011.1 |
| 20260506105324 | 15 | 156 | 0.0 | 0.0 | 0.00 | 0.00 | 0.00 | 88 | 1011.0 |
| 20260506104830 | 15 | 157 | 0.0 | 0.0 | 0.00 | 0.00 | 0.00 | 88 | 1011.1 |
| 20260506104332 | 15 | 157 | 0.0 | 8.0 | 0.00 | 0.00 | 0.00 | 88 | 1011.1 |
| 20260506103816 | 15 | 116 | 0.0 | 8.0 | 0.00 | 0.00 | 0.00 | 88 | 1011.0 |
| 20260506103345 | 15 | 224 | 1.6 | 4.8 | 0.00 | 0.00 | 0.00 | 88 | 1010.9 |
| 20260506102851 | 15 | 211 | 0.0 | 4.8 | 0.00 | 0.00 | 0.00 | 88 | 1010.9 |
| 20260506102332 | 15 | 198 | 0.0 | 3.2 | 0.00 | 0.00 | 0.00 | 88 | 1010.8 |
| 20260506101819 | 15 | 199 | 0.0 | 3.2 | 0.00 | 0.00 | 0.00 | 88 | 1010.8 |
| 20260506101343 | 15 | 199 | 0.0 | 6.4 | 0.00 | 0.00 | 0.00 | 87 | 1010.9 |
| 20260506100829 | 15 | 202 | 0.0 | 6.4 | 0.00 | 0.00 | 0.00 | 87 | 1010.8 |
| 20260506100333 | 15 | 186 | 0.0 | 1.6 | 0.00 | 0.00 | 0.00 | 87 | 1010.8 |
| 20260506095819 | 15 | 186 | 0.0 | 3.2 | 0.00 | 0.00 | 0.00 | 87 | 1010.8 |
| 20260506095323 | 15 | 163 | 0.0 | 3.2 | 0.00 | 0.00 | 0.00 | 87 | 1010.7 |
| 20260506094827 | 15 | 167 | 0.0 | 0.0 | 0.00 | 0.00 | 0.00 | 87 | 1010.8 |
| 20260506094351 | 15 | 167 | 0.0 | 3.2 | 0.00 | 0.00 | 0.00 | 87 | 1010.7 |
| 20260506093835 | 15 | 192 | 0.0 | 4.8 | 0.00 | 0.00 | 0.00 | 87 | 1010.7 |
| 20260506093322 | 15 | 214 | 0.0 | 4.8 | 0.00 | 0.00 | 0.00 | 87 | 1010.8 |
| 20260506092828 | 15 | 174 | 0.0 | 1.6 | 0.00 | 0.00 | 0.00 | 87 | 1011.0 |
| 20260506092330 | 15 | 157 | 0.0 | 4.8 | 0.00 | 0.00 | 0.00 | 86 | 1010.9 |
| 20260506091832 | 15 | 159 | 0.0 | 4.8 | 0.00 | 0.00 | 0.00 | 86 | 1010.9 |
| 20260506091319 | 15 | 178 | 0.0 | 3.2 | 0.00 | 0.00 | 0.00 | 86 | 1010.8 |
| 20260506090822 | 15 | 180 | 0.0 | 3.2 | 0.00 | 0.00 | 0.00 | 86 | 1010.8 |
| 20260506090324 | 15 | 201 | 0.0 | 3.2 | 0.00 | 0.00 | 0.00 | 86 | 1010.8 |
| 20260506085835 | 15 | 200 | 0.0 | 0.0 | 0.00 | 0.00 | 0.00 | 85 | 1010.8 |
| 20260506085339 | 15 | 193 | 0.0 | 0.0 | 0.00 | 0.00 | 0.00 | 85 | 1010.9 |
| 20260506084843 | 15 | 101 | 0.0 | 1.6 | 0.00 | 0.00 | 0.00 | 85 | 1011.0 |
| 20260506084326 | 15 | 168 | 0.0 | 1.6 | 0.00 | 0.00 | 0.00 | 85 | 1011.1 |
| 20260506083833 | 15 | 168 | 0.0 | 0.0 | 0.00 | 0.00 | 0.00 | 85 | 1010.9 |
| 20260506083316 | 15 | 168 | 0.0 | 0.0 | 0.00 | 0.00 | 0.00 | 85 | 1010.9 |
| 20260506082825 | 15 | 168 | 0.0 | 1.6 | 0.00 | 0.00 | 0.00 | 85 | 1010.9 |
| 20260506082328 | 15 | 149 | 0.0 | 4.8 | 0.00 | 0.00 | 0.00 | 84 | 1010.8 |
| 20260506081831 | 15 | 176 | 0.0 | 4.8 | 0.00 | 0.00 | 0.00 | 84 | 1010.8 |
| 20260506081318 | 15 | 178 | 0.0 | 3.2 | 0.00 | 0.00 | 0.00 | 84 | 1010.8 |
| 20260506080825 | 15 | 158 | 0.0 | 0.0 | 0.00 | 0.00 | 0.00 | 84 | 1010.9 |
| 20260506080327 | 15 | 158 | 0.0 | 0.0 | 0.00 | 0.00 | 0.00 | 84 | 1010.9 |
| 20260506073316 | 15 | 165 | 0.0 | 4.8 | 0.00 | 0.00 | 0.00 | 82 | 1011.0 |
| 20260506072821 | 15 | 128 | 0.0 | 4.8 | 0.00 | 0.00 | 0.00 | 82 | 1011.0 |
| 20260506072323 | 15 | 136 | 0.0 | 1.6 | 0.00 | 0.00 | 0.00 | 82 | 1011.1 |
| 20260506071828 | 15 | 136 | 0.0 | 3.2 | 0.00 | 0.00 | 0.00 | 82 | 1011.1 |
| 20260506071331 | 16 | 134 | 0.0 | 3.2 | 0.00 | 0.00 | 0.00 | 81 | 1011.0 |
| 20260506070856 | 16 | 186 | 0.0 | 3.2 | 0.00 | 0.00 | 0.00 | 81 | 1010.9 |
| 20260506070325 | 16 | 139 | 0.0 | 6.4 | 0.00 | 0.00 | 0.00 | 81 | 1010.9 |
| 20260506062348 | 16 | 206 | 0.0 | 1.6 | 0.00 | 0.00 | 0.00 | 80 | 1010.8 |
| 20260506061853 | 16 | 208 | 0.0 | 4.8 | 0.00 | 0.00 | 0.00 | 80 | 1010.8 |
| 20260506061339 | 16 | 169 | 0.0 | 0.0 | 0.00 | 0.00 | 0.00 | 80 | 1010.8 |
| 20260506060824 | 16 | 159 | 0.0 | 4.8 | 0.00 | 0.00 | 0.00 | 80 | 1010.8 |
| 20260506060326 | 16 | 194 | 0.0 | 4.8 | 0.00 | 0.00 | 0.00 | 80 | 1010.8 |
| 20260506051326 | 17 | 188 | 1.6 | 6.4 | 0.00 | 0.00 | 0.00 | 78 | 1011.3 |
| 20260506050831 | 17 | 208 | 1.6 | 6.4 | 0.00 | 0.00 | 0.00 | 77 | 1011.3 |
| 20260506050335 | 17 | 240 | 0.0 | 9.7 | 0.00 | 0.00 | 0.00 | 77 | 1011.4 |
| 20260506044834 | 17 | 190 | 3.2 | 9.7 | 0.00 | 0.00 | 0.00 | 76 | 1011.4 |
| 20260506044336 | 17 | 207 | 3.2 | 9.7 | 0.00 | 0.00 | 0.00 | 76 | 1011.4 |
| 20260506043821 | 17 | 169 | 3.2 | 6.4 | 0.00 | 0.00 | 0.00 | 76 | 1011.5 |
| 20260506043327 | 17 | 239 | 1.6 | 9.7 | 0.00 | 0.00 | 0.00 | 75 | 1011.4 |
| 20260506042831 | 17 | 211 | 1.6 | 9.7 | 0.00 | 0.00 | 0.00 | 75 | 1011.4 |
| 20260506042315 | 17 | 232 | 3.2 | 9.7 | 0.00 | 0.00 | 0.00 | 75 | 1011.5 |
| 20260506041823 | 17 | 188 | 4.8 | 9.7 | 0.00 | 0.00 | 0.00 | 75 | 1011.4 |
| 20260506041327 | 17 | 167 | 1.6 | 8.0 | 0.00 | 0.00 | 0.00 | 74 | 1011.4 |
| 20260506040832 | 17 | 217 | 1.6 | 8.0 | 0.00 | 0.00 | 0.00 | 74 | 1011.5 |
| 20260506040316 | 17 | 198 | 0.0 | 4.8 | 0.00 | 0.00 | 0.00 | 73 | 1011.5 |
| 20260506035829 | 17 | 210 | 0.0 | 8.0 | 0.00 | 0.00 | 0.00 | 73 | 1011.4 |
| 20260506035337 | 17 | 219 | 4.8 | 8.0 | 0.00 | 0.00 | 0.00 | 73 | 1011.5 |
| 20260506034822 | 17 | 194 | 1.6 | 6.4 | 0.00 | 0.00 | 0.00 | 73 | 1011.5 |
| 20260506034328 | 17 | 214 | 1.6 | 8.0 | 0.00 | 0.00 | 0.00 | 72 | 1011.6 |
| 20260506033833 | 17 | 225 | 3.2 | 12.9 | 0.00 | 0.00 | 0.00 | 72 | 1011.5 |
| 20260506033317 | 17 | 200 | 4.8 | 12.9 | 0.00 | 0.00 | 0.00 | 71 | 1011.6 |
| 20260506032825 | 17 | 232 | 1.6 | 9.7 | 0.00 | 0.00 | 0.00 | 71 | 1011.6 |
| 20260506032331 | 17 | 231 | 3.2 | 12.9 | 0.00 | 0.00 | 0.00 | 71 | 1011.6 |
| 20260506031834 | 17 | 214 | 4.8 | 12.9 | 0.00 | 0.00 | 0.00 | 71 | 1011.5 |
| 20260506031318 | 17 | 221 | 3.2 | 9.7 | 0.00 | 0.00 | 0.00 | 71 | 1011.4 |
| 20260506030825 | 17 | 211 | 3.2 | 6.4 | 0.00 | 0.00 | 0.00 | 70 | 1011.3 |
| 20260506030330 | 17 | 221 | 1.6 | 8.0 | 0.00 | 0.00 | 0.00 | 70 | 1011.2 |
| 20260506025834 | 17 | 223 | 1.6 | 6.4 | 0.00 | 0.00 | 0.00 | 70 | 1011.3 |
| 20260506025336 | 17 | 173 | 0.0 | 6.4 | 0.00 | 0.00 | 0.00 | 70 | 1011.3 |
| 20260506024819 | 17 | 188 | 1.6 | 6.4 | 0.00 | 0.00 | 0.00 | 70 | 1011.3 |
| 20260506024327 | 17 | 252 | 0.0 | 6.4 | 0.00 | 0.00 | 0.00 | 70 | 1011.3 |
| 20260506023833 | 17 | 191 | 0.0 | 6.4 | 0.00 | 0.00 | 0.00 | 70 | 1011.3 |
| 20260506023335 | 17 | 217 | 0.0 | 8.0 | 0.00 | 0.00 | 0.00 | 71 | 1011.2 |
| 20260506022817 | 17 | 230 | 1.6 | 8.0 | 0.00 | 0.00 | 0.00 | 70 | 1011.2 |
| 20260506022341 | 17 | 194 | 1.6 | 6.4 | 0.00 | 0.00 | 0.00 | 70 | 1011.3 |
| 20260506021825 | 17 | 218 | 0.0 | 4.8 | 0.00 | 0.00 | 0.00 | 70 | 1011.3 |
| 20260506021329 | 17 | 214 | 0.0 | 4.8 | 0.00 | 0.00 | 0.00 | 70 | 1011.3 |
| 20260506020832 | 17 | 216 | 0.0 | 11.3 | 0.00 | 0.00 | 0.00 | 70 | 1011.3 |
| 20260506020320 | 17 | 184 | 1.6 | 11.3 | 0.00 | 0.00 | 0.00 | 69 | 1011.2 |
| 20260506015843 | 17 | 223 | 0.0 | 4.8 | 0.00 | 0.00 | 0.00 | 69 | 1011.2 |
| 20260506015325 | 17 | 208 | 0.0 | 6.4 | 0.00 | 0.00 | 0.00 | 69 | 1011.2 |
| 20260506014827 | 17 | 202 | 1.6 | 6.4 | 0.00 | 0.00 | 0.00 | 69 | 1011.1 |
| 20260506014331 | 17 | 229 | 1.6 | 6.4 | 0.00 | 0.00 | 0.00 | 69 | 1011.1 |
| 20260506013820 | 17 | 236 | 3.2 | 8.0 | 0.00 | 0.00 | 0.00 | 68 | 1011.1 |
| 20260506013322 | 17 | 204 | 3.2 | 8.0 | 0.00 | 0.00 | 0.00 | 68 | 1011.1 |
| 20260506012824 | 17 | 184 | 0.0 | 6.4 | 0.00 | 0.00 | 0.00 | 68 | 1011.0 |
| 20260506012332 | 17 | 185 | 0.0 | 4.8 | 0.00 | 0.00 | 0.00 | 67 | 1010.8 |
| 20260506011834 | 18 | 209 | 0.0 | 6.4 | 0.00 | 0.00 | 0.00 | 67 | 1010.9 |
| 20260506011319 | 18 | 141 | 0.0 | 6.4 | 0.00 | 0.00 | 0.00 | 67 | 1010.8 |
| 20260506010825 | 18 | 213 | 0.0 | 6.4 | 0.00 | 0.00 | 0.00 | 66 | 1010.7 |